Regional Weather Roundup
Issued by NWS

Home | Current Version | Previous Version | Graphics & Text | Print | Product List | Glossary On
Versions: 1 2 3 4 5 6 7 8 9 10 11 12 13 14 15 16 17 18 19 20 21 22 23 24 25 26 27 28 29 30 31 32 33 34 35 36 37 38 39 40 41 42 43 44 45 46 47 48 49 50
000
ASUS43 KMKX 311911
RWRWI

WISCONSIN REGIONAL WEATHER ROUNDUP
NATIONAL WEATHER SERVICE MILWAUKEE/SULLIVAN WI
200 PM CDT THU JUL 31 2014

NOTE: "FAIR" INDICATES FEW OR NO CLOUDS BELOW 12,000 FEET WITH NO
SIGNIFICANT WEATHER AND/OR OBSTRUCTIONS TO VISIBILITY.

WIZ001-002-006>008-014>016-023>028-312000-
NORTHWEST WISCONSIN

CITY           SKY/WX    TMP DP  RH WIND       PRES   REMARKS
SUPERIOR ARPT  SUNNY     80  58  48 NW7       29.96S HX  80
ASHLAND        SUNNY     78  53  41 NW9       29.97S
HAYWARD        MOSUNNY   77  58  51 W6        29.99F
SIREN          PTSUNNY   78  59  51 W7        29.99F HX  80
RICE LAKE      PTSUNNY   78  60  53 W9G17     30.01F
LADYSMITH      MOSUNNY   76  63  62 NW8       30.01S
EAU CLAIRE     MOSUNNY   81  57  43 W10G21    30.00S HX  81
MENOMONIE      CLEAR     80  55  41 SW13      30.02S HX  80
NEW RICHMOND   MOSUNNY   80  54  40 W10       30.02S HX  80
OSCEOLA        CLOUDY    78  60  53 W12       30.03F HX  80
$$

WIZ003>005-009-010-017-018-312000-
NORTH CENTRAL WISCONSIN

CITY           SKY/WX    TMP DP  RH WIND       PRES   REMARKS
WOODRUFF       MOSUNNY   79  51  36 NW6       29.99S
RHINELANDER    MOSUNNY   75  49  39 VRB6      30.00S
EAGLE RIVER    PTSUNNY   74  45  35 NW9       29.99R
LAND O LAKES   MOSUNNY   73  47  40 NW8       30.00S
PHILLIPS       MOSUNNY   76  56  49 W5        29.99S
TOMAHAWK       MOSUNNY   75  53  46 NW10      30.00S
MEDFORD        MOSUNNY   75  62  64 W12       30.00F
MERRILL        MOSUNNY   77  57  50 NW10      29.98S
$$

WIZ029-030-035-036-043>047-312000-
CENTRAL WISCONSIN

CITY           SKY/WX    TMP DP  RH WIND       PRES   REMARKS
WAUSAU         MOSUNNY   79  56  45 NW13      29.97F HX  80
MOSINEE        NOT AVBL
MARSHFIELD     MOSUNNY   79  60  52 W13       30.00S HX  80
STEVENS POINT  MOSUNNY   76  58  52 W10G20    29.99S
WAUPACA        PTSUNNY   78  62  57 NW3       29.98R
WAUTOMA        PTSUNNY   84  57  39 W14G21    29.98F HX  83
WISC RAPIDS    MOSUNNY   80  58  46 W10G20    30.01S HX  80
CAMP DOUGLAS   MOSUNNY   78  60  53 W13       30.01F HX  80
$$

WIZ011>013-019>022-031-037>040-048>050-312000-
NORTHEAST WISCONSIN

CITY           SKY/WX    TMP DP  RH WIND       PRES   REMARKS
ANTIGO         MOSUNNY   75  51  42 NW14      29.99S
STURGEON BAY   SUNNY     75  52  43 W7        29.97S
GREEN BAY      MOSUNNY   78  61  55 W6        29.96F HX  80
MANITOWOC      PTSUNNY   79  61  53 W10       29.97F HX  80
APPLETON       PTSUNNY   77  59  53 SW14G20   29.98F
CLINTONVILLE   PTSUNNY   81  54  39 NW7       29.96S HX  80
OSHKOSH        MOSUNNY   78  63  59 S7        29.97F HX  80
$$

WIZ032>034-041-042-053>061-312000-
SOUTHWEST WISCONSIN

CITY           SKY/WX    TMP DP  RH WIND       PRES   REMARKS
LA CROSSE      MOSUNNY   82  58  43 W10       30.02S HX  82
SPARTA         MOSUNNY   78  55  44 W9G16     30.03S
VIROQUA        FAIR      77  57  51 W7        30.05F
BOSCOBEL       SUNNY     84  55  36 W8        30.04S HX  83
PRAIRIE DU CHI SUNNY     81  51  35 W9        30.03F HX  80
PLATTEVILLE    FAIR      79  58  49 W14       30.06F HX  80
$$

WIZ056-057-062-063-064-067-068-312000-
SOUTH CENTRAL WISCONSIN

CITY           SKY/WX    TMP DP  RH WIND       PRES   REMARKS
BARABOO/DELLS  SUNNY     81  53  37 W10       30.02S HX  80
LONE ROCK      MOSUNNY   82  58  43 NW12      30.02F HX  82
WATERTOWN      MOSUNNY   79  59  49 W10       30.01S HX  80
MADISON        PTSUNNY   82  58  43 W8        30.02F HX  82
MIDDLETON      FAIR      81  53  37 W9G17     30.03S HX  81
MONROE         MOSUNNY   79  55  44 W15G23    30.05S
JANESVILLE     MOSUNNY   82  52  34 W14G20    30.02F HX  81
$$

WIZ051-052-058>065-066-070>072-312000-
SOUTHEAST WISCONSIN

CITY           SKY/WX    TMP DP  RH WIND       PRES   REMARKS
MILWAUKEE      PTSUNNY   80  56  43 W10       30.00F HX  80
WAUKESHA       MOSUNNY   75  59  57 W9G17     30.03S
MILWAUKEE/TIMM PTSUNNY   81  54  39 W12G20    30.01S HX  80
RACINE         SUNNY     82  56  40 W14G22    30.02S HX  82
BURLINGTON     MOSUNNY   79  58  48 W8G17     30.02S HX  80
KENOSHA        PTSUNNY   79  60  52 W14       30.02S HX  80
FOND DU LAC    PTSUNNY   78  58  49 NW9       29.99S
SHEBOYGAN      MOSUNNY   79  56  45 W9        29.98F HX  80
WEST BEND      MOSUNNY   79  54  41 W13       30.00S
JUNEAU         MOSUNNY   78  53  42 W7        30.02S
$$

LSZ147-162-312000-
LAKE SUPERIOR

STATION/POSITION TIME  TEMP    WIND        PRES    WAVE
                       AIR SEA DIR/SP/G            HT/PER
                 (UTC) (F)     (DEG/KT/KT) (MB)    (FT/S)
W MID LAKE BUOY  1850   52 44  230/  6/  8 1014.4F   0
PORT WING        1800   74     270/  6/  8 1014.9F
SAXON HARBOR     1800           50/  3/  4 1014.9F
$$

LMZ867-665-643>646-312000-
LAKE MICHIGAN

STATION/POSITION TIME  TEMP    WIND        PRES    WAVE
                       AIR SEA DIR/SP/G            HT/PER
                 (UTC) (F)     (DEG/KT/KT) (MB)    (FT/S)
N MID LAKE BUOY  1850   58 55  200/ 12/ 14 1013.7F   1/ 2
NORTHPORT PIER   1800   70     150/  5/  9 1013.9F
SISTER BAY       1840   73     270/  7/  7   N/A
ALGOMA LAKESHORE 1721          230/  8/  9   N/A
KEWAUNEE LAKESHO 1800   59     180/ 10/ 11 1014.4F
SHEBOYGAN LAKESH 1900   66     170/ 14/ 14 1015.4F
PORT WASHINGTON  1840   67     130/ 10/ 12 1015.9F
ATWATER BUOY     1900   72      90/  6     1016.7F
MILWAUKEE LAKESH 1800   78     280/  8/ 13   N/A
S MID LAKE BUOY  1850   65 64  160/  4/  4 1016.9S   1
KENOSHA   LAKESH 1900   79     280/ 13/ 16 1015.6F
$$

TC  - TEMPERATURE IN CELSIUS
VSB - VISIBILITY IN STATUTE MILES
WCI - WIND CHILL INDEX
HX  - HEAT INDEX



USA.gov is the U.S. government's official web portal to all federal, state and local government web resources and services.